Location: Cahas Mountain Overlook
(37.0833°N, 80.1000°W)
Time: 03:34:16
(UTC-05:00)

Tiros 1 despin weight - Visible Passes

Search period start: 15 February 2026 00:00
Search period end: 25 February 2026 00:00
Orbit: 557 x 594 km, 48.2° (Epoch: 13 February)

Date Brightness Start Highest point End Pass type
(mag) Time Alt. Az. Time Alt. Az. Time Alt. Az.
15 Feb ? 18:29:18 10° NW 18:32:16 18° N 18:35:15 10° NE visible
15 Feb ? 20:10:37 10° NW 20:12:32 19° NNW 20:12:32 19° NNW visible
16 Feb ? 18:32:12 10° NW 18:35:05 18° N 18:37:59 10° NE visible
16 Feb ? 20:13:05 10° NW 20:15:02 21° NNW 20:15:02 21° NNW visible
17 Feb ? 18:34:58 10° NW 18:37:54 18° N 18:40:50 10° NE visible
17 Feb ? 20:15:30 10° NW 20:17:34 24° NNW 20:17:34 24° NNW visible
18 Feb ? 18:37:36 10° NW 18:40:41 19° N 18:43:47 10° ENE visible
18 Feb ? 20:17:55 10° NW 20:20:09 28° NNW 20:20:09 28° NNW visible
19 Feb ? 18:40:06 10° NW 18:43:27 22° NNE 18:46:36 11° ENE visible
19 Feb ? 20:20:21 10° NW 20:22:47 33° NW 20:22:47 33° NW visible
20 Feb ? 18:42:32 10° NW 18:46:09 27° NNE 18:49:19 12° ENE visible
20 Feb ? 20:22:50 10° WNW 20:25:30 38° WNW 20:25:30 38° WNW visible
21 Feb ? 18:44:55 10° NW 18:48:48 35° NNE 18:52:07 13° E visible
21 Feb ? 20:25:26 10° WNW 20:28:19 35° W 20:28:19 35° W visible
22 Feb ? 18:47:17 10° NW 18:51:23 50° NNE 18:55:02 13° ESE visible
22 Feb ? 20:28:12 10° WNW 20:31:15 26° WSW 20:31:15 26° WSW visible
23 Feb ? 18:49:42 10° NW 18:53:53 75° NNE 18:58:05 10° ESE visible
23 Feb ? 20:31:20 10° W 20:34:03 17° SW 20:34:19 17° SW visible
24 Feb ? 18:52:10 10° WNW 18:56:20 70° SW 19:00:31 10° SE visible
